| time (UTC) | temp C | wind direction | speed KPH | gust KPH | rain 1hr cm | rain 24hr cm | rain mn cm | humidity % | barometer mb |
| 20260504050713 | 11 | 176 | 0.0 | 0.0 | 0.00 | 0.00 | 0.00 | 48 | 1025.6 |
| 20260504050210 | 11 | 212 | 0.0 | 0.0 | 0.00 | 0.00 | 0.00 | 48 | 1025.7 |
| 20260504045710 | 11 | 243 | 0.0 | 0.0 | 0.00 | 0.00 | 0.00 | 47 | 1025.7 |
| 20260504045210 | 11 | 215 | 0.0 | 0.0 | 0.00 | 0.00 | 0.00 | 45 | 1025.6 |
| 20260504044710 | 11 | 224 | 0.0 | 0.0 | 0.00 | 0.00 | 0.00 | 45 | 1025.7 |
| 20260504044213 | 11 | 232 | 0.0 | 0.0 | 0.00 | 0.00 | 0.00 | 44 | 1025.8 |
| 20260504043713 | 12 | 222 | 0.0 | 0.0 | 0.00 | 0.00 | 0.00 | 43 | 1025.7 |
| 20260504043213 | 12 | 232 | 0.0 | 0.0 | 0.00 | 0.00 | 0.00 | 42 | 1025.7 |
| 20260504042710 | 12 | 186 | 0.0 | 0.0 | 0.00 | 0.00 | 0.00 | 42 | 1025.7 |
| 20260504042213 | 12 | 183 | 0.0 | 0.0 | 0.00 | 0.00 | 0.00 | 41 | 1025.6 |
| 20260504041713 | 12 | 166 | 0.0 | 0.0 | 0.00 | 0.00 | 0.00 | 40 | 1025.7 |
| 20260504041213 | 12 | 149 | 0.0 | 0.0 | 0.00 | 0.00 | 0.00 | 40 | 1025.7 |
| 20260504040713 | 12 | 206 | 0.0 | 0.0 | 0.00 | 0.00 | 0.00 | 39 | 1025.7 |
| 20260504040210 | 12 | 229 | 0.0 | 0.0 | 0.00 | 0.00 | 0.00 | 38 | 1025.6 |
| 20260504035713 | 12 | 232 | 0.0 | 0.0 | 0.00 | 0.00 | 0.00 | 37 | 1025.5 |
| 20260504035213 | 12 | 225 | 0.0 | 0.0 | 0.00 | 0.00 | 0.00 | 36 | 1025.5 |
| 20260504034713 | 13 | 242 | 0.0 | 0.0 | 0.00 | 0.00 | 0.00 | 36 | 1025.5 |
| 20260504034213 | 13 | 250 | 0.0 | 0.0 | 0.00 | 0.00 | 0.00 | 35 | 1025.5 |
| 20260504033713 | 12 | 225 | 0.0 | 0.0 | 0.00 | 0.00 | 0.00 | 34 | 1025.4 |
| 20260504033210 | 12 | 276 | 0.0 | 0.0 | 0.00 | 0.00 | 0.00 | 33 | 1025.5 |
| 20260504032710 | 12 | 252 | 0.0 | 0.0 | 0.00 | 0.00 | 0.00 | 32 | 1025.4 |
| 20260504032213 | 13 | 229 | 0.0 | 0.0 | 0.00 | 0.00 | 0.00 | 31 | 1025.3 |
| 20260504031710 | 13 | 235 | 0.0 | 0.0 | 0.00 | 0.00 | 0.00 | 30 | 1025.2 |
| 20260504031213 | 13 | 234 | 0.0 | 0.0 | 0.00 | 0.00 | 0.00 | 30 | 1025.0 |
| 20260504030713 | 13 | 284 | 0.0 | 0.0 | 0.00 | 0.00 | 0.00 | 30 | 1024.9 |
| 20260504030210 | 13 | 218 | 0.0 | 0.0 | 0.00 | 0.00 | 0.00 | 31 | 1024.8 |
| 20260504025713 | 13 | 226 | 0.0 | 0.0 | 0.00 | 0.00 | 0.00 | 30 | 1024.7 |
| 20260504025213 | 13 | 190 | 0.0 | 0.0 | 0.00 | 0.00 | 0.00 | 29 | 1024.5 |
| 20260504024710 | 13 | 226 | 0.0 | 0.0 | 0.00 | 0.00 | 0.00 | 26 | 1024.4 |
| 20260504024213 | 13 | 183 | 0.0 | 0.0 | 0.00 | 0.00 | 0.00 | 23 | 1024.4 |
| 20260504023710 | 14 | 203 | 0.0 | 0.0 | 0.00 | 0.00 | 0.00 | 22 | 1024.3 |
| 20260504023210 | 14 | 233 | 0.0 | 0.0 | 0.00 | 0.00 | 0.00 | 21 | 1024.3 |
| 20260504022710 | 15 | 240 | 0.0 | 0.0 | 0.00 | 0.00 | 0.00 | 21 | 1024.1 |
| 20260504022210 | 15 | 225 | 0.0 | 0.0 | 0.00 | 0.00 | 0.00 | 20 | 1024.0 |
| 20260504021710 | 15 | 248 | 0.0 | 0.0 | 0.00 | 0.00 | 0.00 | 19 | 1023.8 |
| 20260504021210 | 15 | 253 | 0.0 | 0.0 | 0.00 | 0.00 | 0.00 | 19 | 1023.8 |
| 20260504020713 | 16 | 250 | 0.0 | 0.0 | 0.00 | 0.00 | 0.00 | 19 | 1023.7 |
| 20260504015710 | 16 | 221 | 0.0 | 0.0 | 0.00 | 0.00 | 0.00 | 18 | 1023.5 |
| 20260504015210 | 16 | 257 | 0.0 | 0.0 | 0.00 | 0.00 | 0.00 | 18 | 1023.4 |
| 20260504014710 | 16 | 250 | 0.0 | 0.0 | 0.00 | 0.00 | 0.00 | 18 | 1023.2 |
| 20260504014213 | 16 | 252 | 0.0 | 0.0 | 0.00 | 0.00 | 0.00 | 17 | 1023.2 |
| 20260504013710 | 17 | 275 | 0.0 | 0.0 | 0.00 | 0.00 | 0.00 | 17 | 1023.1 |
| 20260504013210 | 17 | 253 | 0.0 | 0.0 | 0.00 | 0.00 | 0.00 | 17 | 1023.0 |
| 20260504012710 | 17 | 259 | 0.0 | 0.0 | 0.00 | 0.00 | 0.00 | 17 | 1022.9 |
| 20260504012213 | 17 | 229 | 0.0 | 0.0 | 0.00 | 0.00 | 0.00 | 16 | 1022.8 |
| 20260504011710 | 18 | 256 | 0.0 | 0.0 | 0.00 | 0.00 | 0.00 | 17 | 1022.8 |
| 20260504011213 | 18 | 240 | 0.0 | 0.0 | 0.00 | 0.00 | 0.00 | 17 | 1022.7 |
| 20260504010710 | 18 | 328 | 0.0 | 0.0 | 0.00 | 0.00 | 0.00 | 17 | 1022.6 |
| 20260504010210 | 18 | 319 | 0.0 | 0.0 | 0.00 | 0.00 | 0.00 | 17 | 1022.6 |
| 20260504005710 | 18 | 240 | 0.0 | 0.0 | 0.00 | 0.00 | 0.00 | 17 | 1022.6 |
| 20260504005210 | 18 | 269 | 0.0 | 0.0 | 0.00 | 0.00 | 0.00 | 16 | 1022.5 |
| 20260504004713 | 18 | 209 | 0.0 | 0.0 | 0.00 | 0.00 | 0.00 | 17 | 1022.4 |
| 20260504004210 | 18 | 259 | 0.0 | 1.6 | 0.00 | 0.00 | 0.00 | 16 | 1022.3 |
| 20260504003713 | 18 | 293 | 0.0 | 0.0 | 0.00 | 0.00 | 0.00 | 17 | 1022.2 |
| 20260504003210 | 18 | 262 | 0.0 | 1.6 | 0.00 | 0.00 | 0.00 | 17 | 1022.1 |
| 20260504002710 | 18 | 276 | 0.0 | 0.0 | 0.00 | 0.00 | 0.00 | 16 | 1022.1 |
| 20260504002210 | 19 | 240 | 0.0 | 0.0 | 0.00 | 0.00 | 0.00 | 18 | 1022.0 |
| 20260504001710 | 19 | 256 | 0.0 | 0.0 | 0.00 | 0.00 | 0.00 | 19 | 1022.0 |
| 20260504001213 | 19 | 269 | 0.0 | 0.0 | 0.00 | 0.00 | 0.00 | 19 | 1021.9 |
| 20260504000713 | 18 | 352 | 0.0 | 0.0 | 0.00 | 0.00 | 0.00 | 21 | 1021.8 |
| 20260504000211 | 18 | 84 | 0.0 | 0.0 | 0.00 | 0.00 | 0.00 | 21 | 1021.7 |
| 20260503235710 | 19 | 73 | 0.0 | 0.0 | 0.00 | 0.00 | 0.00 | 19 | 1021.7 |
| 20260503235213 | 19 | 156 | 0.0 | 1.6 | 0.00 | 0.00 | 0.00 | 20 | 1021.7 |
| 20260503234710 | 19 | 205 | 0.0 | 1.6 | 0.00 | 0.00 | 0.00 | 22 | 1021.5 |
| 20260503234210 | 19 | 156 | 0.0 | 0.0 | 0.00 | 0.00 | 0.00 | 22 | 1021.4 |
| 20260503233710 | 19 | 134 | 0.0 | 1.6 | 0.00 | 0.00 | 0.00 | 22 | 1021.3 |
| 20260503233210 | 18 | 107 | 0.0 | 0.0 | 0.00 | 0.00 | 0.00 | 22 | 1021.3 |
| 20260503232710 | 18 | 139 | 0.0 | 0.0 | 0.00 | 0.00 | 0.00 | 22 | 1021.3 |
| 20260503232210 | 18 | 82 | 0.0 | 1.6 | 0.00 | 0.00 | 0.00 | 23 | 1021.3 |
| 20260503231710 | 18 | 215 | 0.0 | 1.6 | 0.00 | 0.00 | 0.00 | 23 | 1021.2 |
| 20260503231213 | 18 | 171 | 0.0 | 0.0 | 0.00 | 0.00 | 0.00 | 23 | 1021.2 |
| 20260503230713 | 18 | 134 | 0.0 | 0.0 | 0.00 | 0.00 | 0.00 | 23 | 1021.2 |
| 20260503230213 | 18 | 190 | 0.0 | 3.2 | 0.00 | 0.00 | 0.00 | 23 | 1021.2 |
| 20260503225713 | 18 | 179 | 0.0 | 0.0 | 0.00 | 0.00 | 0.00 | 25 | 1021.1 |
| 20260503225210 | 18 | 166 | 0.0 | 0.0 | 0.00 | 0.00 | 0.00 | 25 | 1021.2 |
| 20260503224713 | 18 | 128 | 0.0 | 1.6 | 0.00 | 0.00 | 0.00 | 24 | 1021.2 |
| 20260503224213 | 18 | 124 | 0.0 | 0.0 | 0.00 | 0.00 | 0.00 | 26 | 1021.2 |
| 20260503223713 | 18 | 169 | 0.0 | 0.0 | 0.00 | 0.00 | 0.00 | 26 | 1021.3 |
| 20260503223210 | 18 | 194 | 0.0 | 1.6 | 0.00 | 0.00 | 0.00 | 27 | 1021.2 |
| 20260503222713 | 18 | 146 | 0.0 | 4.8 | 0.00 | 0.00 | 0.00 | 26 | 1021.2 |
| 20260503222210 | 18 | 153 | 0.0 | 0.0 | 0.00 | 0.00 | 0.00 | 26 | 1021.2 |
| 20260503221713 | 18 | 155 | 0.0 | 14.5 | 0.00 | 0.00 | 0.00 | 26 | 1021.3 |
| 20260503221210 | 18 | 169 | 3.2 | 3.2 | 0.00 | 0.00 | 0.00 | 26 | 1021.3 |
| 20260503220710 | 18 | 150 | 0.0 | 4.8 | 0.00 | 0.00 | 0.00 | 27 | 1021.3 |
| 20260503220213 | 18 | 176 | 0.0 | 0.0 | 0.00 | 0.00 | 0.00 | 27 | 1021.2 |
| 20260503215710 | 18 | 156 | 0.0 | 16.1 | 0.00 | 0.00 | 0.00 | 27 | 1021.2 |
| 20260503215213 | 18 | 162 | 0.0 | 0.0 | 0.00 | 0.00 | 0.00 | 27 | 1021.2 |
| 20260503214710 | 18 | 156 | 0.0 | 17.7 | 0.00 | 0.00 | 0.00 | 27 | 1021.3 |
| 20260503214213 | 18 | 117 | 0.0 | 12.9 | 0.00 | 0.00 | 0.00 | 26 | 1021.2 |
| 20260503213713 | 18 | 163 | 0.0 | 12.9 | 0.00 | 0.00 | 0.00 | 26 | 1021.2 |
| 20260503213213 | 18 | 110 | 0.0 | 0.0 | 0.00 | 0.00 | 0.00 | 26 | 1021.2 |
| 20260503212710 | 17 | 221 | 0.0 | 8.0 | 0.00 | 0.00 | 0.00 | 26 | 1021.2 |
| 20260503212213 | 18 | 122 | 0.0 | 0.0 | 0.00 | 0.00 | 0.00 | 25 | 1021.2 |
| 20260503211710 | 17 | 159 | 0.0 | 0.0 | 0.00 | 0.00 | 0.00 | 26 | 1021.3 |
| 20260503211213 | 17 | 104 | 0.0 | 0.0 | 0.00 | 0.00 | 0.00 | 28 | 1021.4 |
| 20260503210713 | 16 | 78 | 0.0 | 0.0 | 0.00 | 0.00 | 0.00 | 28 | 1021.4 |
| 20260503210210 | 17 | 176 | 0.0 | 1.6 | 0.00 | 0.00 | 0.00 | 27 | 1021.3 |
| 20260503205710 | 17 | 159 | 0.0 | 8.0 | 0.00 | 0.00 | 0.00 | 27 | 1021.5 |
| 20260503205213 | 17 | 73 | 0.0 | 1.6 | 0.00 | 0.00 | 0.00 | 27 | 1021.4 |
| 20260503204713 | 17 | 149 | 0.0 | 0.0 | 0.00 | 0.00 | 0.00 | 28 | 1021.5 |
| 20260503204213 | 17 | 155 | 0.0 | 0.0 | 0.00 | 0.00 | 0.00 | 28 | 1021.5 |
| 20260503203710 | 18 | 152 | 0.0 | 1.6 | 0.00 | 0.00 | 0.00 | 26 | 1021.5 |
| 20260503203210 | 17 | 77 | 0.0 | 1.6 | 0.00 | 0.00 | 0.00 | 28 | 1021.6 |
| 20260503202713 | 17 | 204 | 0.0 | 0.0 | 0.00 | 0.00 | 0.00 | 27 | 1021.6 |
| 20260503202213 | 17 | 159 | 0.0 | 0.0 | 0.00 | 0.00 | 0.00 | 26 | 1021.7 |
| 20260503201710 | 17 | 173 | 0.0 | 0.0 | 0.00 | 0.00 | 0.00 | 28 | 1021.6 |
| 20260503201213 | 17 | 232 | 0.0 | 4.8 | 0.00 | 0.00 | 0.00 | 26 | 1021.6 |
| 20260503200710 | 18 | 115 | 0.0 | 0.0 | 0.00 | 0.00 | 0.00 | 28 | 1021.6 |
| 20260503200210 | 18 | 243 | 0.0 | 1.6 | 0.00 | 0.00 | 0.00 | 27 | 1021.6 |
| 20260503195710 | 18 | 158 | 0.0 | 0.0 | 0.00 | 0.00 | 0.00 | 28 | 1021.5 |
| 20260503195210 | 18 | 126 | 0.0 | 0.0 | 0.00 | 0.00 | 0.00 | 28 | 1021.6 |
| 20260503194710 | 18 | 160 | 0.0 | 1.6 | 0.00 | 0.00 | 0.00 | 28 | 1021.6 |
| 20260503194210 | 17 | 176 | 0.0 | 0.0 | 0.00 | 0.00 | 0.00 | 29 | 1021.5 |
| 20260503193710 | 17 | 226 | 0.0 | 0.0 | 0.00 | 0.00 | 0.00 | 29 | 1021.7 |
| 20260503193210 | 17 | 71 | 0.0 | 0.0 | 0.00 | 0.00 | 0.00 | 29 | 1021.7 |
| 20260503192713 | 17 | 177 | 0.0 | 0.0 | 0.00 | 0.00 | 0.00 | 29 | 1021.6 |
| 20260503192210 | 18 | 104 | 0.0 | 0.0 | 0.00 | 0.00 | 0.00 | 29 | 1021.6 |
| 20260503191710 | 18 | 174 | 0.0 | 0.0 | 0.00 | 0.00 | 0.00 | 29 | 1021.6 |
| 20260503191210 | 18 | 160 | 0.0 | 0.0 | 0.00 | 0.00 | 0.00 | 30 | 1021.7 |
| 20260503190713 | 18 | 206 | 0.0 | 0.0 | 0.00 | 0.00 | 0.00 | 29 | 1021.6 |
| 20260503190213 | 17 | 187 | 0.0 | 0.0 | 0.00 | 0.00 | 0.00 | 30 | 1021.6 |
| 20260503185710 | 17 | 66 | 0.0 | 0.0 | 0.00 | 0.00 | 0.00 | 32 | 1021.6 |
| 20260503185210 | 17 | 139 | 0.0 | 0.0 | 0.00 | 0.00 | 0.00 | 31 | 1021.8 |
| 20260503184713 | 17 | 160 | 0.0 | 0.0 | 0.00 | 0.00 | 0.00 | 32 | 1021.8 |
| 20260503184213 | 17 | 174 | 0.0 | 0.0 | 0.00 | 0.00 | 0.00 | 31 | 1021.8 |
| 20260503183713 | 16 | 170 | 0.0 | 0.0 | 0.00 | 0.00 | 0.00 | 33 | 1021.8 |
| 20260503183213 | 16 | 207 | 0.0 | 0.0 | 0.00 | 0.00 | 0.00 | 32 | 1021.9 |
| 20260503182713 | 16 | 203 | 0.0 | 0.0 | 0.00 | 0.00 | 0.00 | 33 | 1021.9 |
| 20260503182210 | 16 | 89 | 0.0 | 0.0 | 0.00 | 0.00 | 0.00 | 33 | 1021.9 |
| 20260503181713 | 16 | 166 | 0.0 | 0.0 | 0.00 | 0.00 | 0.00 | 32 | 1021.9 |
| 20260503181213 | 16 | 104 | 0.0 | 0.0 | 0.00 | 0.00 | 0.00 | 32 | 1021.9 |
| 20260503180713 | 16 | 128 | 0.0 | 0.0 | 0.00 | 0.00 | 0.00 | 32 | 1021.9 |
| 20260503180213 | 16 | 145 | 0.0 | 0.0 | 0.00 | 0.00 | 0.00 | 34 | 1021.9 |
| 20260503175710 | 16 | 101 | 0.0 | 1.6 | 0.00 | 0.00 | 0.00 | 32 | 1021.8 |
| 20260503175213 | 16 | 146 | 0.0 | 0.0 | 0.00 | 0.00 | 0.00 | 33 | 1021.9 |
| 20260503174713 | 16 | 114 | 0.0 | 0.0 | 0.00 | 0.00 | 0.00 | 36 | 1021.9 |
| 20260503174213 | 15 | 126 | 0.0 | 1.6 | 0.00 | 0.00 | 0.00 | 37 | 1021.9 |
| 20260503173710 | 15 | 50 | 0.0 | 0.0 | 0.00 | 0.00 | 0.00 | 37 | 1022.0 |
| 20260503173213 | 15 | 150 | 0.0 | 0.0 | 0.00 | 0.00 | 0.00 | 39 | 1022.1 |
| 20260503172710 | 14 | 110 | 0.0 | 1.6 | 0.00 | 0.00 | 0.00 | 39 | 1022.2 |
| 20260503172213 | 14 | 163 | 0.0 | 0.0 | 0.00 | 0.00 | 0.00 | 40 | 1022.3 |
| 20260503171713 | 15 | 70 | 0.0 | 0.0 | 0.00 | 0.00 | 0.00 | 40 | 1022.1 |
| 20260503171210 | 14 | 79 | 0.0 | 0.0 | 0.00 | 0.00 | 0.00 | 42 | 1022.1 |
| 20260503170710 | 14 | 46 | 0.0 | 0.0 | 0.00 | 0.00 | 0.00 | 40 | 1022.1 |
| 20260503170210 | 14 | 79 | 0.0 | 1.6 | 0.00 | 0.00 | 0.00 | 42 | 1022.1 |
| 20260503160213 | 12 | 50 | 0.0 | 0.0 | 0.00 | 0.00 | 0.00 | 47 | 1022.1 |
| 20260503150710 | 10 | 75 | 0.0 | 0.0 | 0.00 | 0.00 | 0.00 | 57 | 1022.4 |
| 20260503150213 | 9 | 71 | 0.0 | 0.0 | 0.00 | 0.00 | 0.00 | 60 | 1022.6 |
| 20260503140213 | 7 | 11 | 0.0 | 0.0 | 0.00 | 0.00 | 0.00 | 65 | 1022.6 |
| 20260503131210 | 6 | 26 | 0.0 | 0.0 | 0.00 | 0.00 | 0.00 | 66 | 1023.4 |
| 20260503130710 | 6 | 5 | 0.0 | 0.0 | 0.00 | 0.00 | 0.00 | 65 | 1023.4 |
| 20260503130213 | 6 | 6 | 0.0 | 0.0 | 0.00 | 0.00 | 0.00 | 63 | 1023.5 |
| 20260503120210 | 4 | 109 | 0.0 | 0.0 | 0.00 | 0.00 | 0.00 | 68 | 1023.8 |
| 20260503110713 | 5 | 326 | 0.0 | 0.0 | 0.00 | 0.00 | 0.00 | 61 | 1024.4 |
| 20260503110210 | 5 | 326 | 0.0 | 0.0 | 0.00 | 0.00 | 0.00 | 60 | 1024.4 |
| 20260503100210 | 5 | 243 | 0.0 | 0.0 | 0.00 | 0.00 | 0.00 | 63 | 1025.4 |
| 20260503090213 | 5 | 247 | 0.0 | 0.0 | 0.00 | 0.00 | 0.00 | 67 | 1026.2 |
| 20260503081213 | 6 | 219 | 0.0 | 0.0 | 0.00 | 0.00 | 0.00 | 65 | 1026.9 |
| 20260503080713 | 6 | 212 | 0.0 | 0.0 | 0.00 | 0.00 | 0.00 | 65 | 1027.0 |
| 20260503080213 | 6 | 188 | 0.0 | 0.0 | 0.00 | 0.00 | 0.00 | 64 | 1027.1 |
| 20260503072713 | 6 | 193 | 0.0 | 0.0 | 0.00 | 0.00 | 0.00 | 61 | 1027.6 |
| 20260503072210 | 7 | 212 | 0.0 | 0.0 | 0.00 | 0.00 | 0.00 | 61 | 1027.6 |
| 20260503071713 | 7 | 200 | 0.0 | 0.0 | 0.00 | 0.00 | 0.00 | 60 | 1027.7 |
| 20260503071213 | 7 | 234 | 0.0 | 0.0 | 0.00 | 0.00 | 0.00 | 60 | 1027.7 |
| 20260503070713 | 7 | 152 | 0.0 | 0.0 | 0.00 | 0.00 | 0.00 | 60 | 1027.8 |
| 20260503070213 | 7 | 200 | 0.0 | 0.0 | 0.00 | 0.00 | 0.00 | 60 | 1027.9 |
| 20260503060213 | 7 | 197 | 0.0 | 0.0 | 0.00 | 0.00 | 0.00 | 57 | 1028.1 |
| 20260503054713 | 7 | 188 | 0.0 | 0.0 | 0.00 | 0.00 | 0.00 | 57 | 1028.1 |
| 20260503054210 | 8 | 176 | 0.0 | 0.0 | 0.00 | 0.00 | 0.00 | 56 | 1028.1 |
| 20260503053710 | 8 | 200 | 0.0 | 0.0 | 0.00 | 0.00 | 0.00 | 55 | 1028.2 |
| 20260503053210 | 8 | 193 | 0.0 | 0.0 | 0.00 | 0.00 | 0.00 | 55 | 1028.3 |
| 20260503052710 | 8 | 188 | 0.0 | 0.0 | 0.00 | 0.00 | 0.00 | 54 | 1028.2 |
| 20260503052213 | 8 | 232 | 0.0 | 0.0 | 0.00 | 0.00 | 0.00 | 54 | 1028.3 |
| 20260503051710 | 8 | 154 | 0.0 | 0.0 | 0.00 | 0.00 | 0.00 | 54 | 1028.3 |
| 20260503051213 | 8 | 222 | 0.0 | 0.0 | 0.00 | 0.00 | 0.00 | 53 | 1028.3 |